Date String (YYYY-MM-DD hh:mm:ss) UTC,Instrument flags,absolute air pressure of the measurement (hPa),sample flow rate (lpm),inlet stack bypass flow (lpm),air temperature of the measurement (°C),ambient temperature measured by the external sensor (°C),aerosol sample conditioner tube jacket temperature (°C),OPC LED temperature (°C),internal box temperature (°C),relative humidity of the measurement (%),span deviation,mass concentration of particles derived from Lorenz-Mie calculation of OPC scattering (μg/m³),mass concentration of particles derived from Lorenz-Mie calculation of OPC scattering (μg/m³),mass concentration of particles derived from Lorenz-Mie calculation of OPC scattering (μg/m³)
DateTimeUTC,F1_M11,P_M11,Q1_M11,Q2_M11,T1_M11,T2_M11,T3_M11,T4_M11,T5_M11,U1_M11,ZSPAN_M11,X2_M11,X0_M11,X1_M11
2023-08-10 20:00:00,SystemResetWarning,0828.9,5.00,000.00,029.0,027.6,000.0,037.3,030.8,18.9,0000.0,0005.66,0010.31,0005.09
2023-08-10 20:01:00,SystemResetWarning,0828.9,4.98,000.00,029.1,026.5,000.0,037.3,030.7,18.1,0000.0,0005.65,0010.29,0005.08
2023-08-10 20:02:00,SystemResetWarning,0829.0,5.01,000.00,029.0,025.0,000.0,037.1,030.4,17.9,0000.0,0005.62,0009.82,0005.08
2023-08-10 20:03:00,SystemResetWarning,0829.0,5.01,000.00,028.9,025.0,000.0,037.1,030.3,17.5,0000.0,0005.60,0009.80,0005.07
2023-08-10 20:04:00,SystemResetWarning,0829.0,5.00,000.00,028.8,025.4,000.0,037.1,030.2,18.5,0000.0,0005.59,0009.97,0005.06
2023-08-10 20:05:00,SystemResetWarning,0829.1,4.99,000.00,028.8,025.8,000.0,037.1,030.3,19.5,0000.0,0005.59,0010.08,0005.06
2023-08-10 20:06:00,SystemResetWarning,0829.1,5.00,000.00,028.8,026.2,000.0,037.2,030.4,20.4,0000.0,0005.56,0009.85,0005.05
2023-08-10 20:07:00,SystemResetWarning,0829.3,5.00,000.00,028.9,026.6,000.0,037.2,030.5,22.5,0000.0,0005.57,0009.53,0005.04
2023-08-10 20:08:00,SystemResetWarning,0829.3,5.00,000.00,028.9,027.0,000.0,037.3,030.6,24.0,0000.0,0005.55,0009.32,0005.02
2023-08-10 20:09:00,SystemResetWarning,0829.3,4.98,000.00,028.9,027.3,000.0,037.3,030.7,24.8,0000.0,0005.52,0009.24,0005.01
2023-08-10 20:10:00,SystemResetWarning,0829.1,5.01,000.00,029.0,027.5,000.0,037.3,030.8,24.5,0000.0,0005.47,0009.04,0005.01
2023-08-10 20:11:00,SystemResetWarning,0829.2,5.00,000.00,029.0,027.4,000.0,037.3,030.7,24.0,0000.0,0005.44,0008.86,0005.01
2023-08-10 20:12:00,SystemResetWarning,0829.2,5.00,000.00,029.0,025.9,000.0,037.2,030.3,23.7,0000.0,0005.42,0009.13,0004.99
2023-08-10 20:13:00,SystemResetWarning,0829.2,5.00,000.00,028.9,024.6,000.0,037.1,030.1,22.5,0000.0,0005.41,0009.19,0004.98
2023-08-10 20:14:00,SystemResetWarning,0829.3,5.01,000.00,028.8,024.8,000.0,037.0,030.0,23.3,0001.0,0005.40,0009.88,0004.96
2023-08-10 20:15:00,SystemResetWarning,0829.5,5.00,000.00,028.7,025.2,000.0,037.1,030.0,22.8,0000.3,0005.36,0009.95,0004.93
2023-08-10 20:16:00,SystemResetWarning,0829.4,4.99,000.00,028.7,025.6,000.0,037.1,030.1,24.2,0000.0,0005.32,0009.63,0004.91
2023-08-10 20:17:00,SystemResetWarning,0829.5,5.00,000.00,028.7,026.0,000.0,037.1,030.2,22.2,0000.0,0005.30,0009.60,0004.89
2023-08-10 20:18:00,SystemResetWarning,0829.5,5.00,000.00,028.7,026.4,000.0,037.1,030.3,19.4,0000.0,0005.27,0009.25,0004.88
2023-08-10 20:19:00,SystemResetWarning,0829.5,4.98,000.00,028.8,026.8,000.0,037.2,030.4,20.6,0000.0,0005.27,0009.23,0004.88
2023-08-10 20:20:00,SystemResetWarning,0829.7,5.00,000.00,028.8,027.1,000.0,037.2,030.5,22.9,0000.0,0005.25,0009.23,0004.87
2023-08-10 20:21:00,SystemResetWarning,0829.7,5.01,000.00,028.8,027.3,000.0,037.2,030.6,21.1,0000.0,0005.26,0009.43,0004.87
2023-08-10 20:22:00,SystemResetWarning,0829.7,5.00,000.00,028.9,027.6,000.0,037.3,030.7,19.6,0000.3,0005.26,0010.13,0004.87
2023-08-10 20:23:00,SystemResetWarning,0829.7,4.99,000.00,028.9,027.8,000.0,037.3,030.7,20.0,0000.0,0005.28,0009.96,0004.88
2023-08-10 20:24:00,SystemResetWarning,0829.7,4.99,000.00,029.0,027.3,000.0,037.3,030.7,20.7,0000.0,0005.29,0011.13,0004.89
2023-08-10 20:25:00,SystemResetWarning,0829.7,5.01,000.00,028.9,025.7,000.0,037.1,030.4,21.3,0000.0,0005.29,0010.87,0004.90
2023-08-10 20:26:00,SystemResetWarning,0829.7,5.01,000.00,028.9,025.5,000.0,037.1,030.3,23.7,0000.0,0005.32,0010.71,0004.92
2023-08-10 20:27:00,SystemResetWarning,0829.7,5.01,000.00,028.8,025.7,000.0,037.1,030.3,22.9,0000.0,0005.34,0010.79,0004.93
2023-08-10 20:28:00,SystemResetWarning,0829.7,5.00,000.00,028.8,026.1,000.0,037.2,030.3,23.5,0000.0,0005.35,0010.85,0004.93
2023-08-10 20:29:00,SystemResetWarning,0829.7,5.00,000.00,028.8,026.5,000.0,037.2,030.5,23.6,0000.0,0005.35,0010.87,0004.93
2023-08-10 20:30:00,SystemResetWarning,0829.6,5.00,000.00,028.9,026.8,000.0,037.2,030.6,23.6,0000.0,0005.40,0011.35,0004.94
2023-08-10 20:31:00,SystemResetWarning,0829.4,5.00,000.00,028.9,027.1,000.0,037.3,030.7,23.4,0000.0,0005.47,0012.31,0004.94
2023-08-10 20:32:00,SystemResetWarning,0829.3,5.00,000.00,028.9,027.4,000.0,037.3,030.7,22.0,0000.0,0005.56,0012.56,0004.93
2023-08-10 20:33:00,SystemResetWarning,0829.4,4.99,000.00,029.0,027.6,000.0,037.3,030.8,22.9,0000.0,0005.65,0013.23,0004.94
2023-08-10 20:34:00,SystemResetWarning,0829.4,4.99,000.00,029.0,027.4,000.0,037.3,030.8,22.3,0000.0,0005.71,0013.42,0004.93
2023-08-10 20:35:00,SystemResetWarning,0829.2,5.01,000.00,029.0,026.0,000.0,037.2,030.5,22.2,0000.0,0005.71,0012.53,0004.93
2023-08-10 20:36:00,SystemResetWarning,0829.2,5.01,000.00,029.0,025.6,000.0,037.1,030.4,21.4,0000.0,0005.77,0013.04,0004.93
2023-08-10 20:37:00,SystemResetWarning,0829.1,5.02,000.00,028.9,025.9,000.0,037.2,030.3,20.6,0000.0,0005.82,0013.88,0004.93
2023-08-10 20:38:00,SystemResetWarning,0829.1,5.00,000.00,028.9,026.2,000.0,037.2,030.4,20.1,0000.0,0005.97,0014.51,0004.96
2023-08-10 20:39:00,SystemResetWarning,0829.1,5.00,000.00,028.9,026.6,000.0,037.3,030.5,21.0,0000.0,0006.02,0015.21,0004.96
2023-08-10 20:40:00,SystemResetWarning,0829.0,5.00,000.00,028.9,026.9,000.0,037.3,030.6,20.7,0000.1,0006.05,0015.28,0004.97
2023-08-10 20:41:00,SystemResetWarning,0828.9,5.00,000.00,029.0,027.2,000.0,037.3,030.7,20.1,0000.5,0006.04,0014.87,0004.96
2023-08-10 20:42:00,SystemResetWarning,0828.9,5.00,000.00,029.0,027.5,000.0,037.4,030.8,18.6,0001.5,0006.02,0014.07,0004.96
2023-08-10 20:43:00,SystemResetWarning,0828.9,5.00,000.00,029.1,027.7,000.0,037.4,030.8,18.9,0001.0,0005.97,0013.87,0004.96
2023-08-10 20:44:00,SystemResetWarning,0829.0,4.98,000.00,029.1,026.8,000.0,037.3,030.7,18.1,0000.8,0005.84,0012.42,0004.92
2023-08-10 20:45:00,SystemResetWarning,0828.9,5.01,000.00,029.0,025.2,000.0,037.2,030.4,18.0,0000.2,0005.73,0012.01,0004.87
2023-08-10 20:46:00,SystemResetWarning,0828.9,5.01,000.00,028.9,024.8,000.0,037.1,030.2,18.4,0001.4,0005.69,0011.68,0004.84
2023-08-10 20:47:00,SystemResetWarning,0828.9,5.01,000.00,028.8,025.1,000.0,037.1,030.1,18.0,0000.0,0005.57,0010.62,0004.79
2023-08-10 20:48:00,SystemResetWarning,0828.9,4.99,000.00,028.8,025.5,000.0,037.2,030.2,17.8,0000.0,0005.49,0009.73,0004.72
2023-08-10 20:49:00,SystemResetWarning,0828.9,5.00,000.00,028.8,026.0,000.0,037.2,030.3,18.0,0000.0,0005.30,0009.18,0004.65
2023-08-10 20:50:00,SystemResetWarning,0828.9,5.01,000.00,028.8,026.4,000.0,037.3,030.5,18.4,0000.0,0005.22,0008.60,0004.61
2023-08-10 20:51:00,SystemResetWarning,0828.9,5.01,000.00,028.9,026.8,000.0,037.3,030.5,17.7,0000.0,0005.14,0008.48,0004.55
2023-08-10 20:52:00,SystemResetWarning,0828.8,5.00,000.00,028.9,027.1,000.0,037.3,030.6,17.4,0000.0,0005.02,0008.28,0004.49
2023-08-10 20:53:00,SystemResetWarning,0828.8,4.99,000.00,028.9,027.4,000.0,037.3,030.7,17.5,0000.0,0004.92,0008.11,0004.44
2023-08-10 20:54:00,SystemResetWarning,0828.8,5.00,000.00,029.0,027.6,000.0,037.4,030.8,17.4,0000.0,0004.85,0008.15,0004.41
2023-08-10 20:55:00,SystemResetWarning,0828.8,5.00,000.00,029.0,027.8,000.0,037.4,030.8,17.4,0000.0,0004.84,0008.55,0004.41
2023-08-10 20:56:00,SystemResetWarning,0828.8,4.98,000.00,029.1,027.3,000.0,037.4,030.8,17.8,0000.0,0004.83,0008.55,0004.40
2023-08-10 20:57:00,SystemResetWarning,0828.7,5.00,000.00,029.0,025.5,000.0,037.2,030.5,18.4,0000.0,0004.82,0008.54,0004.40
2023-08-10 20:58:00,SystemResetWarning,0828.7,5.01,000.00,028.9,024.8,000.0,037.1,030.3,18.0,0000.0,0004.84,0008.69,0004.41
2023-08-10 20:59:00,SystemResetWarning,0828.6,5.00,000.00,028.9,025.1,000.0,037.1,030.2,18.3,0000.0,0004.81,0008.74,0004.44
